Regional Weather Roundup
Issued by NWS Goodland, KS

Home | Current Version | Previous Version | Graphics & Text | Print | Product List | Glossary On
Versions: 1 2 3 4 5 6 7 8 9 10 11 12 13 14 15 16 17 18 19 20 21 22 23 24 25 26 27 28 29 30 31 32 33 34 35 36 37 38 39 40 41 42 43 44 45 46 47 48 49 50
000
ASUS43 KGLD 210359
RWRGLD

GOODLAND FORECAST AREA HOURLY WEATHER ROUNDUP
NATIONAL WEATHER SERVICE GOODLAND KS
1000 PM MDT FRI APR 20 2018

...OFFICIAL OBSERVATIONS...

CITY           SKY/WX    TMP DP  RH WIND       PRES   REMARKS
GOODLAND KS    LGT RAIN  40  38  93 SE20G26   30.14R
HILL CITY KS   LGT RAIN  46  43  89 E12       30.22R
IMPERIAL NEB   CLOUDY    39  38  96 NE15      30.18S
MCCOOK NEB     LGT RAIN  42  40  92 E10       30.20R
AKRON CO       CLOUDY    35  35 100 SE20      30.12R
BURLINGTON CO  CLOUDY    39  37  92 SE21G35   30.11R
LIMON CO       FOG       32  32 100 SE12      30.09R VSB 1/4
$$

...UNOFFICIAL OBSERVATIONS...

CITY           SKY/WX    TMP DP  RH WIND       PRES   REMARKS
NORTON KS      LGT RAIN  45  41  87 E6        30.21
SHARON SPRINGS   N/A     42  40  93 S13G26      N/A
KIT CARSON CO    N/A     38  34  87 CALM        N/A
YUMA CO        CLOUDY    36  34  93 E15G21    30.13R
$$



USA.gov is the U.S. government's official web portal to all federal, state and local government web resources and services.